Simultaneous Nadir Overpasses (SNOs) Predictions

Prediction of SNOs between GOES-15 and TERRA Satellite Orbit:

Table of predicted SNOs for the next 14.0 days since TLE Epoch: 1/24/2025
Index Date Time (GOES-15) GOES-15 Lat,Lon TERRA Lat,Lon Distance(km) Time Diff (sec)
1 01/25/2025 05:10:41 -0.02, 61.55 -0.91, 65.69 470.87 80
2 01/25/2025 17:30:26 0.02, 61.56 -0.13, 60.89 76.98 80
3 01/27/2025 17:09:10 0.00, 61.60 0.79, 65.37 428.34 80
4 01/28/2025 05:28:45 -0.00, 61.61 0.22, 60.61 114.40 80
5 01/30/2025 05:12:49 -0.00, 61.65 -0.74, 65.09 391.19 80
6 01/30/2025 17:32:34 0.00, 61.65 -0.27, 60.28 155.37 80
7 02/01/2025 17:11:16 -0.00, 61.70 0.62, 64.78 349.70 80
8 02/02/2025 05:30:52 -0.00, 61.72 0.37, 60.01 194.48 80
9 02/04/2025 05:14:54 -0.00, 61.76 -0.56, 64.50 310.94 80
10 02/04/2025 17:34:39 -0.00, 61.76 -0.41, 59.69 234.25 80
11 02/06/2025 17:13:20 -0.00, 61.82 0.51, 64.19 270.11 80
12 02/07/2025 05:32:55 0.00, 61.86 0.54, 59.44 275.76 80
